Chillicothe, MO

9:04 PM CDT on April 28, 2017 (GMT -0500)
Chillicothe

Weather History for KCDJ - November, 2012

Change the Weather History Date:

Tuesday, November 20, 2012

  Actual Average (KIRK) Record (KIRK)
Temperature  
Mean Temperature 50 °F -  
Max Temperature 64 °F 48 °F 74 °F (1933)
Min Temperature 35 °F 29 °F 9 °F (2000)
Degree Days  
Heating Degree Days 15    
Moisture  
Dew Point 39 °F    
Average Humidity 73    
Maximum Humidity 92    
Minimum Humidity 46    
Precipitation  
Precipitation 0.00 in - - ()
Sea Level Pressure  
Sea Level Pressure 30.18 in    
Wind  
Wind Speed 2 mph (NW)    
Max Wind Speed 8 mph    
Max Gust Speed -    
Averages and records for this station are not official NWS values.
T = Trace of Precipitation, MM = Missing Value Source: NWS Daily Summary

Daily Weather History Graph

Daily Weather History Graph

Search for Another Location

Airport or City:

Trip Planner

Search our weather history database for the weather conditions in past years. The results will help you decide how hot, cold, wet, or windy it might be!

Date:

Astronomy

Nov. 20, 2012 Rise Set
Actual Time 7:05 AM CST 4:54 PM CST
Civil Twilight 6:35 AM CST 5:23 PM CST
Nautical Twilight 6:03 AM CST 5:56 PM CST
Astronomical Twilight 5:30 AM CST 6:28 PM CST
Moon 12:40 PM CST (11/20) No Moon Set
Length of Visible Light 10h 47m
Length of Day
9h 49m
First Quarter, 51% of the Moon is Illuminated
Nov 20
First Quarter
Nov 28
Full
Dec 6
Last Quarter
Dec 13
New
Dec 19
First Quarter

Hourly Weather History & Observations

Time (CST) Temp. Windchill Dew Point Humidity Pressure Visibility Wind Dir Wind Speed Gust Speed Precip Events Conditions
12:52 AM 44.1 °F - 39.0 °F 82% 30.10 in - Calm Calm - N/A   Unknown
1:52 AM 46.0 °F - 39.0 °F 76% 30.10 in - Calm Calm - N/A   Unknown
2:52 AM 45.0 °F 43.5 °F 39.0 °F 80% 30.11 in - Variable 3.5 mph - N/A   Unknown
3:52 AM 44.1 °F 41.5 °F 37.9 °F 79% 30.12 in - NNW 4.6 mph - N/A   Unknown
4:52 AM 39.9 °F - 35.1 °F 83% 30.14 in - Calm Calm - N/A   Unknown
5:52 AM 42.1 °F 38.4 °F 36.0 °F 79% 30.14 in - NW 5.8 mph - N/A   Unknown
6:52 AM 41.0 °F 38.0 °F 36.0 °F 82% 30.16 in - NW 4.6 mph - N/A   Unknown
7:52 AM 43.0 °F 41.3 °F 37.0 °F 80% 30.18 in - NW 3.5 mph - N/A   Unknown
8:52 AM 46.9 °F - 39.0 °F 74% 30.19 in - NW 5.8 mph - N/A   Unknown
9:52 AM 50.0 °F - 39.9 °F 68% 30.20 in - NW 8.1 mph - N/A   Unknown
10:52 AM 54.0 °F - 41.0 °F 62% 30.20 in - Variable 3.5 mph - N/A   Unknown
11:52 AM 60.1 °F - 44.1 °F 55% 30.19 in - Variable 3.5 mph - N/A   Unknown
12:52 PM 62.1 °F - 44.1 °F 52% 30.17 in - Calm Calm - N/A   Unknown
1:52 PM 64.0 °F - 44.1 °F 48% 30.16 in - NW 8.1 mph - N/A   Unknown
2:52 PM 64.0 °F - 44.1 °F 48% 30.17 in - NW 6.9 mph - N/A   Unknown
3:52 PM 64.0 °F - 43.0 °F 46% 30.17 in - NW 5.8 mph - N/A   Unknown
4:52 PM 57.9 °F - 43.0 °F 58% 30.19 in - Calm Calm - N/A   Unknown
5:52 PM 46.9 °F - 39.9 °F 77% 30.21 in - Calm Calm - N/A   Unknown
6:52 PM 45.0 °F - 39.0 °F 80% 30.22 in - Calm Calm - N/A   Unknown
7:52 PM 39.9 °F - 36.0 °F 86% 30.23 in - Calm Calm - N/A   Unknown
8:52 PM 39.9 °F - 36.0 °F 86% 30.24 in - Calm Calm - N/A   Unknown
9:52 PM 39.0 °F - 36.0 °F 89% 30.24 in - Calm Calm - N/A   Unknown
10:52 PM 36.0 °F - 33.1 °F 89% 30.24 in - Calm Calm - N/A   Unknown
11:52 PM 35.1 °F - 33.1 °F 92% 30.23 in - Calm Calm - N/A   Unknown